QPF
0.00 0.00 0.00 0.00 0.00 0.00 0.00 0.00 0.00 0.00 0.00 0.00 0.00 0.00 0.00 0.00 0.00 0.00 0.00 0.00 0.00 0.00 0.00 0.00 0.00 0.00 0.00 0.00 0.00 0.00 0.00 0.00 0.00 0.00 0.00 0.00 0.00 0.00 0.00 0.00 0.00 0.00 0.00 0.00 0.00 0.00 0.00 0.00 0.00 0.00 0.00 0.00 0.00 0.00
0.00 0.00 0.00 0.00 0.00 0.00 0.00 0.00 0.00 0.00 0.00 0.00 0.00 0.00 0.00 0.00 0.00 0.00 0.00 0.00 0.00 0.00 0.00 0.00 0.00 0.00 0.00 0.00 0.00 0.00 0.00 0.00 0.00 0.00 0.00 0.00 0.00 0.00 0.00 0.00 0.00 0.00 0.00 0.00 0.00 0.00 0.00 0.00 0.00 0.00 0.00 0.00 0.00 0.00
0.00 0.00 0.00 0.00 0.00 0.00 0.00 0.00 0.00 0.00 0.00 0.00 0.00 0.00 0.00 0.00 0.00 0.00 0.00 0.00 0.00 0.00 0.00 0.00 0.00 0.00 0.00 0.00 0.00 0.00 0.00 0.00 0.00 0.00 0.00 0.00 0.00 0.00 0.00 0.00 0.00 0.00 0.00 0.00 0.00 0.00 0.00 0.00 0.00 0.00 0.00 0.00 0.00 0.00
0.00 0.00 0.00 0.00 0.00 0.00 0.00 0.00 0.00 0.00 0.00 0.00 0.00 0.00 0.00 0.00 0.00 0.00 0.00 0.00 0.00 0.00 0.00 0.00 0.00 0.00 0.00 0.00 0.00 0.00 0.00 0.00 0.00 0.00 0.00 0.00 0.00 0.00 0.00 0.00 0.00 0.00 0.00 0.00 0.00 0.00 0.00 0.00 0.00 0.00 0.00 0.00 0.00 0.00
0.00 0.00 0.00 0.00 0.00 0.00 0.00 0.00 0.00 0.00 0.00 0.00 0.00 0.00 0.00 0.00 0.00 0.00 0.00 0.00 0.00 0.00 0.00 0.00 0.00 0.00 0.00 0.00 0.00 0.00 0.00 0.00 0.00 0.00 0.00 0.00 0.00 0.00 0.00 0.00 0.00 0.00 0.00 0.00 0.00 0.00 0.00 0.00 0.00 0.00 0.00 0.00 0.00 0.00
0.00 0.00 0.00 0.00 0.00 0.00 0.00 0.00 0.00 0.00 0.00 0.00 0.00 0.00 0.00 0.00 0.00 0.00 0.00 0.00 0.00 0.00 0.00 0.00 0.00 0.00 0.00 0.00 0.00 0.00 0.00 0.00 0.00 0.00 0.00 0.00 0.00 0.00 0.00 0.00 0.00 0.00 0.00 0.00 0.00 0.00 0.00 0.00 0.00 0.00 0.00 0.00 0.00 0.00
0.00 0.00 0.00 0.00 0.00 0.00 0.00 0.00 0.00 0.00 0.00 0.00 0.00 0.00 0.00 0.00 0.00 0.00 0.00 0.00 0.00 0.00 0.00 0.00 0.00 0.00 0.00 0.00 0.00 0.00 0.00 0.00 0.00 0.00 0.00 0.00 0.00 0.00 0.00 0.00 0.00 0.00 0.00 0.00 0.00 0.00 0.00 0.00 0.00 0.00 0.00 0.00 0.00 0.00
0.00 0.00 0.00 0.00 0.00 0.00 0.00 0.00 0.00 0.00 0.00 0.00 0.00 0.00 0.00 0.00 0.00 0.00 0.00 0.00 0.00 0.00 0.00 0.00 0.00 0.00 0.00 0.00 0.00 0.00 0.00 0.00 0.00 0.00 0.00 0.00 0.00 0.00 0.00 0.00 0.00 0.00 0.00 0.00 0.00 0.00 0.00 0.00 0.00 0.00 0.00 0.00 0.00 0.00
0.00 0.00 0.00 0.00 0.00 0.00 0.00 0.00 0.00 0.00 0.00 0.00 0.00 0.00 0.00 0.00 0.00 0.00 0.00 0.00 0.00 0.00 0.00 0.00 0.00 0.00 0.00 0.00 0.00 0.00 0.00 0.00 0.00 0.00 0.00 0.00 0.00 0.00 0.00 0.00 0.00 0.00 0.00 0.00 0.00 0.00 0.00 0.00 0.00 0.00 0.00 0.00 0.00 0.00
0.00 0.00 0.00 0.00 0.00 0.00 0.00 0.00 0.00 0.00 0.00 0.00 0.00 0.00 0.00 0.00 0.00 0.00 0.00 0.00 0.00 0.00 0.00 0.00 0.00 0.00 0.00 0.00 0.00 0.00 0.00 0.00 0.00 0.00 0.00 0.00 0.00 0.00 0.00 0.00 0.00 0.00 0.00 0.00 0.00 0.00 0.00 0.00 0.00 0.00 0.00 0.00 0.00 0.00
0.00 0.00 0.00 0.00 0.00 0.00 0.00 0.00 0.00 0.00 0.00 0.00 0.00 0.00 0.00 0.00 0.00 0.00 0.00 0.00 0.00 0.00 0.00 0.00 0.00 0.00 0.00 0.00 0.00 0.00 0.00 0.00 0.00 0.00 0.00 0.00 0.00 0.00 0.00 0.00 0.00 0.00 0.00 0.00 0.00 0.00 0.00 0.00 0.00 0.00 0.00 0.00 0.00 0.00
0.00 0.00 0.00 0.00 0.00 0.00 0.00 0.00 0.00 0.00 0.00 0.00 0.00 0.00 0.00 0.00 0.00 0.00 0.00 0.00 0.00 0.00 0.00 0.00 0.00 0.00 0.00 0.00 0.00 0.00 0.00 0.00 0.00 0.00 0.00 0.00 0.00 0.00 0.00 0.00 0.00 0.00 0.00 0.00 0.00 0.00 0.00 0.00 0.00 0.00 0.00 0.00 0.00 0.00
0.00 0.00 0.00 0.00 0.00 0.00 0.00 0.00 0.00 0.00 0.00 0.00 0.00 0.00 0.00 0.00 0.00 0.00 0.00 0.00 0.00 0.00 0.00 0.00 0.00 0.00 0.00 0.00 0.00 0.00 0.00 0.00 0.00 0.00 0.00 0.00 0.00 0.00 0.00 0.00 0.00 0.00 0.00 0.00 0.00 0.00 0.00 0.00 0.00 0.00 0.00 0.00 0.00 0.00
0.00 0.01 0.00 0.00 0.00 0.00 0.00 0.00 0.00 0.00 0.00 0.00 0.00 0.00 0.00 0.00 0.00 0.00 0.00 0.00 0.00 0.00 0.00 0.00 0.00 0.00 0.00 0.00 0.00 0.00 0.00 0.00 0.00 0.00 0.00 0.00 0.00 0.00 0.00 0.00 0.00 0.00 0.00 0.00 0.00 0.00 0.00 0.00 0.00 0.00 0.00 0.00 0.00 0.00
0.00 0.00 0.00 0.00 0.00 0.00 0.00 0.00 0.00 0.00 0.00 0.00 0.00 0.00 0.00 0.00 0.00 0.00 0.00 0.00 0.00 0.00 0.00 0.00 0.00 0.00 0.00 0.00 0.00 0.00 0.00 0.00 0.00 0.00 0.00 0.00 0.00 0.00 0.00 0.00 0.00 0.00 0.00 0.00 0.00 0.00 0.00 0.00 0.00 0.00 0.00 0.00 0.00 0.00
0.00 0.00 0.00 0.00 0.00 0.00 0.00 0.00 0.00 0.00 0.00 0.00 0.00 0.00 0.00 0.00 0.00 0.00 0.00 0.00 0.00 0.00 0.00 0.00 0.00 0.00 0.00 0.00 0.00 0.00 0.00 0.00 0.00 0.00 0.00 0.00 0.00 0.00 0.00 0.00 0.00 0.00 0.00 0.00 0.00 0.00 0.00 0.00 0.00 0.00 0.00 0.00 0.00 0.00
0.00 0.00 0.00 0.00 0.00 0.01 0.00 0.00 0.00 0.00 0.00 0.00 0.00 0.00 0.00 0.00 0.00 0.00 0.00 0.00 0.00 0.00 0.00 0.00 0.00 0.00 0.00 0.00 0.00 0.00 0.00 0.00 0.00 0.00 0.00 0.00 0.00 0.00 0.00 0.00 0.00 0.00 0.00 0.00 0.00 0.00 0.00 0.00 0.00 0.00 0.00 0.00 0.00 0.00
0.00 0.00 0.00 0.00 0.00 0.00 0.00 0.00 0.00 0.00 0.00 0.00 0.00 0.00 0.00 0.00 0.00 0.00 0.00 0.00 0.00 0.00 0.00 0.00 0.00 0.00 0.00 0.00 0.00 0.00 0.00 0.00 0.00 0.00 0.00 0.00 0.00 0.00 0.00 0.00 0.00 0.00 0.00 0.00 0.00 0.00 0.00 0.00 0.00 0.00 0.00 0.00 0.00 0.00
0.00 0.00 0.00 0.00 0.00 0.00 0.00 0.00 0.01 0.00 0.00 0.00 0.00 0.00 0.00 0.00 0.00 0.00 0.00 0.00 0.00 0.00 0.00 0.00 0.00 0.00 0.00 0.00 0.00 0.00 0.00 0.00 0.00 0.00 0.00 0.00 0.00 0.00 0.00 0.00 0.00 0.00 0.00 0.00 0.00 0.00 0.00 0.00 0.00 0.00 0.00 0.00 0.00 0.00
0.00 0.00 0.00 0.00 0.00 0.00 0.00 0.00 0.00 0.00 0.00 0.00 0.00 0.00 0.00 0.00 0.00 0.00 0.00 0.00 0.00 0.00 0.00 0.00 0.00 0.00 0.00 0.00 0.00 0.00 0.00 0.00 0.00 0.00 0.00 0.00 0.00 0.00 0.00 0.00 0.00 0.00 0.00 0.00 0.00 0.00 0.00 0.00 0.00 0.00 0.00 0.00 0.00 0.00
0.00 0.00 0.00 0.00 0.00 0.00 0.00 0.00 0.00 0.00 0.00 0.00 0.00 0.00 0.00 0.00 0.00 0.00 0.00 0.00 0.00 0.00 0.00 0.00 0.00 0.00 0.00 0.00 0.00 0.00 0.00 0.00 0.00 0.00 0.00 0.00 0.00 0.00 0.00 0.00 0.00 0.00 0.00 0.00 0.00 0.00 0.00 0.00 0.00 0.00 0.00 0.00 0.00 0.00
0.00 0.00 0.01 0.00 0.00 0.00 0.00 0.00 0.00 0.00 0.00 0.00 0.00 0.00 0.00 0.00 0.00 0.00 0.00 0.00 0.00 0.00 0.00 0.00 0.00 0.00 0.00 0.00 0.00 0.00 0.00 0.00 0.00 0.00 0.00 0.00 0.00 0.00 0.00 0.00 0.00 0.00 0.00 0.00 0.00 0.00 0.00 0.00 0.00 0.00 0.00 0.00 0.00 0.00
0.01 0.01 0.01 0.00 0.00 0.00 0.00 0.00 0.00 0.01 0.00 0.00 0.00 0.00 0.00 0.00 0.00 0.00 0.00 0.00 0.00 0.00 0.00 0.00 0.00 0.00 0.00 0.00 0.00 0.00 0.00 0.00 0.00 0.00 0.00 0.00 0.00 0.00 0.00 0.00 0.00 0.00 0.00 0.00 0.00 0.00 0.00 0.00 0.00 0.00 0.00 0.00 0.00 0.00
0.03 0.02 0.01 0.02 0.01 0.01 0.00 0.00 0.00 0.01 0.01 0.01 0.00 0.01 0.00 0.00 0.00 0.00 0.00 0.00 0.00 0.00 0.00 0.00 0.00 0.00 0.00 0.00 0.00 0.00 0.00 0.00 0.00 0.00 0.00 0.00 0.00 0.00 0.00 0.00 0.00 0.00 0.00 0.00 0.00 0.00 0.00 0.00 0.00 0.00 0.00 0.00 0.00 0.00
0.02 0.01 0.01 0.02 0.02 0.01 0.01 0.02 0.00 0.00 0.00 0.01 0.01 0.01 0.01 0.00 0.00 0.00 0.00 0.00 0.00 0.00 0.00 0.00 0.00 0.00 0.00 0.00 0.00 0.00 0.00 0.00 0.00 0.00 0.00 0.00 0.00 0.00 0.00 0.00 0.00 0.00 0.00 0.00 0.00 0.00 0.00 0.00 0.00 0.00 0.00 0.00 0.00 0.00
0.03 0.02 0.03 0.02 0.02 0.02 0.01 0.01 0.00 0.00 0.00 0.01 0.02 0.01 0.02 0.01 0.00 0.00 0.00 0.00 0.00 0.00 0.00 0.00 0.00 0.00 0.00 0.00 0.00 0.00 0.00 0.00 0.00 0.00 0.00 0.00 0.00 0.00 0.00 0.00 0.00 0.00 0.00 0.00 0.00 0.00 0.00 0.00 0.00 0.00 0.00 0.00 0.00 0.00
0.02 0.03 0.03 0.03 0.04 0.02 0.02 0.00 0.00 0.00 0.01 0.01 0.01 0.01 0.02 0.01 0.00 0.00 0.00 0.00 0.00 0.00 0.00 0.00 0.00 0.00 0.00 0.00 0.00 0.00 0.00 0.00 0.00 0.00 0.00 0.00 0.00 0.00 0.00 0.00 0.00 0.00 0.00 0.00 0.00 0.00 0.00 0.00 0.00 0.00 0.00 0.00 0.00 0.00
0.01 0.02 0.03 0.02 0.02 0.02 0.01 0.00 0.00 0.01 0.01 0.02 0.01 0.01 0.01 0.00 0.00 0.00 0.00 0.00 0.00 0.00 0.00 0.00 0.00 0.00 0.00 0.00 0.00 0.00 0.00 0.00 0.00 0.00 0.00 0.00 0.00 0.00 0.00 0.00 0.00 0.00 0.00 0.00 0.00 0.00 0.00 0.00 0.00 0.00 0.00 0.00 0.00 0.00
0.00 0.01 0.02 0.02 0.01 0.02 0.02 0.01 0.01 0.01 0.01 0.00 0.00 0.00 0.00 0.00 0.00 0.00 0.00 0.00 0.00 0.00 0.00 0.00 0.00 0.00 0.00 0.00 0.00 0.00 0.00 0.00 0.00 0.00 0.00 0.00 0.00 0.00 0.00 0.00 0.00 0.00 0.00 0.00 0.00 0.00 0.00 0.00 0.00 0.00 0.00 0.00 0.00 0.00
0.00 0.00 0.00 0.00 0.00 0.01 0.01 0.00 0.00 0.00 0.00 0.00 0.00 0.00 0.00 0.00 0.00 0.00 0.00 0.00 0.00 0.00 0.00 0.00 0.00 0.00 0.00 0.00 0.00 0.00 0.00 0.00 0.00 0.00 0.00 0.00 0.00 0.00 0.00 0.00 0.00 0.00 0.00 0.00 0.00 0.00 0.00 0.00 0.00 0.00 0.00 0.00 0.00 0.00
0.00 0.00 0.00 0.01 0.01 0.01 0.00 0.00 0.00 0.00 0.00 0.00 0.00 0.00 0.00 0.00 0.00 0.00 0.00 0.00 0.00 0.00 0.00 0.00 0.00 0.00 0.00 0.00 0.00 0.00 0.00 0.00 0.00 0.00 0.00 0.00 0.00 0.00 0.00 0.00 0.00 0.00 0.00 0.00 0.00 0.00 0.00 0.00 0.00 0.00 0.00 0.00 0.00 0.00
0.01 0.01 0.01 0.01 0.01 0.01 0.02 0.01 0.01 0.00 0.00 0.00 0.00 0.00 0.00 0.00 0.00 0.00 0.00 0.00 0.00 0.00 0.00 0.00 0.00 0.00 0.00 0.00 0.00 0.00 0.00 0.00 0.00 0.00 0.00 0.00 0.00 0.00 0.00 0.00 0.00 0.00 0.00 0.00 0.00 0.00 0.00 0.00 0.00 0.00 0.00 0.00 0.00 0.00
0.01 0.03 0.02 0.01 0.02 0.03 0.02 0.02 0.02 0.01 0.01 0.00 0.00 0.00 0.00 0.00 0.00 0.00 0.00 0.00 0.00 0.00 0.00 0.00 0.00 0.00 0.00 0.00 0.00 0.00 0.00 0.00 0.00 0.00 0.00 0.00 0.00 0.00 0.00 0.00 0.00 0.00 0.00 0.00 0.00 0.00 0.00 0.00 0.00 0.00 0.00 0.00 0.00 0.00
MSLP
1026.96 1026.88 1026.81 1026.61 1026.38 1026.10 1025.84 1025.57 1025.21 1024.90 1024.46 1024.04 1023.75 1023.36 1023.01 1022.72 1022.44 1022.65 1024.15 1023.73 1024.44 1027.12 1027.38 1026.52 1026.20 1026.22 1026.36 1026.93 1027.64 1027.70 1027.97 1028.16 1028.81 1029.75 1030.92 1031.82 1032.21 1032.86 1033.29 1033.58 1034.25 1034.52 1034.82 1035.23 1035.32 1035.48 1034.60 1033.03 1032.32 1032.28 1032.43 1031.80 1031.62 1031.32
1027.34 1027.31 1027.27 1027.13 1026.82 1026.62 1026.38 1026.10 1025.82 1025.48 1025.12 1024.73 1024.34 1024.00 1023.70 1023.45 1023.29 1023.30 1024.41 1024.43 1024.70 1026.32 1027.35 1026.65 1026.09 1025.59 1025.62 1026.02 1026.99 1027.71 1028.05 1028.32 1028.84 1029.82 1030.73 1031.53 1032.50 1032.98 1033.31 1033.65 1033.52 1034.10 1034.19 1034.46 1035.14 1034.65 1033.61 1032.65 1032.18 1031.61 1031.41 1031.29 1030.86 1030.62
1027.67 1027.69 1027.64 1027.58 1027.31 1027.06 1026.91 1026.63 1026.37 1026.19 1025.80 1025.42 1025.04 1024.65 1024.39 1024.20 1024.03 1024.18 1024.89 1025.24 1025.76 1027.34 1027.94 1027.22 1026.42 1025.68 1025.29 1025.53 1025.74 1027.16 1027.58 1027.54 1028.16 1028.41 1029.76 1031.14 1031.98 1032.25 1033.04 1032.98 1032.96 1032.94 1032.92 1033.42 1033.93 1033.34 1032.57 1031.72 1031.22 1030.90 1030.47 1030.48 1030.17 1029.94
1027.95 1027.94 1027.96 1027.91 1027.82 1027.51 1027.27 1027.19 1026.87 1026.64 1026.40 1026.02 1025.55 1025.18 1025.00 1024.85 1024.73 1024.68 1025.70 1025.98 1026.20 1027.50 1028.62 1028.09 1026.45 1025.92 1025.39 1025.39 1025.62 1026.01 1026.62 1027.06 1027.64 1028.39 1029.83 1030.98 1031.37 1031.26 1032.04 1031.99 1032.22 1031.91 1032.05 1032.47 1032.68 1032.12 1031.63 1030.97 1030.40 1029.82 1029.78 1029.61 1029.60 1029.73
1028.14 1028.21 1028.13 1028.20 1028.15 1028.00 1027.69 1027.57 1027.38 1027.10 1026.87 1026.63 1026.24 1025.90 1025.63 1025.42 1025.36 1025.64 1026.17 1026.46 1026.20 1026.99 1028.62 1028.43 1027.41 1026.22 1025.76 1025.77 1025.90 1026.16 1026.65 1027.44 1028.35 1029.27 1030.14 1030.81 1030.67 1030.78 1031.29 1031.51 1031.34 1030.81 1030.99 1031.28 1031.17 1030.84 1030.68 1030.21 1029.57 1029.17 1029.24 1029.20 1029.40 1029.62
1028.28 1028.36 1028.44 1028.35 1028.38 1028.31 1028.16 1027.93 1027.78 1027.51 1027.30 1027.07 1026.81 1026.50 1026.15 1025.87 1025.88 1026.38 1026.90 1026.66 1026.54 1026.54 1027.57 1028.71 1027.92 1026.85 1026.26 1026.16 1026.19 1026.55 1026.98 1027.72 1028.61 1029.59 1030.25 1029.96 1029.52 1030.25 1031.11 1030.91 1029.87 1029.43 1029.28 1029.45 1029.68 1029.47 1029.33 1029.05 1029.04 1028.84 1028.85 1028.92 1029.15 1029.45
1028.39 1028.52 1028.63 1028.58 1028.55 1028.49 1028.37 1028.25 1028.08 1027.89 1027.63 1027.42 1027.24 1027.00 1026.61 1026.20 1026.52 1027.14 1027.21 1026.93 1026.63 1026.69 1027.66 1028.92 1028.44 1027.19 1026.50 1026.70 1026.88 1027.07 1027.29 1027.96 1028.60 1029.49 1029.99 1029.74 1029.54 1029.50 1030.05 1029.74 1028.61 1028.50 1028.38 1028.48 1028.39 1028.65 1028.75 1028.63 1028.70 1028.67 1028.70 1028.81 1029.12 1029.35
1028.50 1028.56 1028.68 1028.77 1028.70 1028.64 1028.52 1028.41 1028.34 1028.08 1027.94 1027.65 1027.45 1027.22 1027.11 1026.92 1026.98 1027.08 1027.08 1026.64 1026.44 1027.23 1027.91 1028.96 1028.80 1027.89 1026.82 1027.38 1027.84 1027.60 1028.14 1028.45 1028.72 1029.10 1029.49 1029.45 1029.22 1029.23 1028.85 1027.47 1027.36 1027.55 1027.71 1027.89 1027.89 1027.81 1027.88 1028.01 1028.37 1028.59 1028.63 1028.79 1029.13 1029.41
1028.42 1028.48 1028.73 1028.79 1028.78 1028.74 1028.62 1028.51 1028.44 1028.35 1028.18 1027.87 1027.58 1027.24 1027.31 1027.47 1027.44 1027.23 1026.85 1026.71 1026.93 1027.76 1028.43 1028.72 1028.76 1027.94 1027.12 1027.49 1027.83 1028.12 1028.29 1029.15 1028.90 1028.98 1028.99 1028.97 1028.70 1027.84 1025.87 1025.91 1026.15 1026.38 1026.75 1027.03 1027.25 1027.44 1027.82 1028.14 1028.42 1028.62 1028.70 1028.87 1029.19 1029.48
1028.21 1028.36 1028.61 1028.80 1028.87 1028.82 1028.73 1028.58 1028.50 1028.48 1028.37 1028.14 1028.21 1028.20 1028.08 1027.66 1027.27 1027.07 1027.07 1027.48 1028.14 1028.06 1028.17 1028.24 1027.79 1027.61 1027.37 1027.81 1028.35 1028.81 1028.81 1029.31 1029.04 1028.46 1028.29 1028.27 1026.92 1024.79 1024.23 1024.19 1024.58 1025.07 1025.59 1026.09 1026.72 1027.11 1027.49 1027.86 1028.10 1028.40 1028.52 1028.63 1028.87 1029.10
1027.84 1028.16 1028.38 1028.64 1028.81 1028.84 1028.80 1028.65 1028.55 1028.59 1028.63 1028.80 1029.13 1029.00 1027.89 1027.33 1027.52 1028.24 1028.68 1028.95 1028.94 1028.73 1027.80 1027.29 1027.04 1027.11 1027.05 1027.63 1028.26 1028.42 1028.66 1028.83 1028.83 1028.19 1028.18 1027.72 1025.96 1023.40 1022.85 1023.32 1023.61 1024.05 1024.63 1025.19 1025.56 1026.07 1026.49 1026.89 1027.50 1027.98 1028.19 1028.28 1028.48 1028.67
1027.48 1027.71 1027.98 1028.28 1028.57 1028.73 1028.84 1028.82 1028.68 1028.93 1029.37 1029.05 1028.95 1028.06 1027.95 1028.27 1028.69 1029.25 1028.91 1028.66 1028.38 1027.43 1026.78 1026.50 1026.40 1026.37 1026.74 1026.75 1027.78 1028.36 1028.16 1028.37 1028.15 1027.72 1028.02 1026.77 1023.45 1022.06 1022.01 1022.39 1022.91 1023.36 1023.93 1024.57 1024.97 1025.48 1025.95 1026.34 1026.80 1027.30 1027.61 1027.90 1028.09 1028.10
1027.33 1027.30 1027.48 1027.70 1028.19 1028.59 1028.83 1028.90 1028.80 1028.80 1028.58 1028.52 1028.74 1028.77 1028.84 1029.11 1029.31 1028.82 1027.82 1027.29 1026.79 1025.55 1025.27 1025.54 1025.97 1026.13 1026.65 1026.97 1027.70 1028.07 1028.19 1028.07 1027.42 1027.53 1026.71 1024.14 1022.28 1021.55 1021.47 1021.89 1022.54 1022.95 1023.51 1024.06 1024.63 1025.10 1025.50 1025.91 1026.27 1026.74 1027.08 1027.32 1027.61 1027.86
1027.70 1027.03 1027.01 1027.28 1027.57 1028.03 1028.65 1029.05 1029.05 1029.27 1029.26 1029.20 1028.99 1029.02 1028.43 1027.78 1026.88 1025.25 1024.63 1024.13 1023.56 1023.53 1023.96 1024.64 1025.94 1026.14 1026.65 1027.25 1027.53 1027.86 1027.54 1027.42 1027.46 1027.18 1024.98 1022.60 1021.27 1020.94 1021.02 1021.32 1022.04 1022.61 1023.05 1023.57 1024.16 1024.68 1025.09 1025.55 1025.99 1026.17 1026.36 1026.67 1027.17 1027.54
1027.57 1027.20 1026.79 1026.63 1027.10 1027.56 1028.21 1028.91 1029.35 1029.56 1029.24 1029.07 1028.48 1027.38 1025.75 1024.22 1023.89 1023.57 1023.16 1023.14 1022.81 1022.74 1023.38 1024.53 1025.58 1026.12 1026.71 1027.22 1027.22 1027.29 1027.23 1026.76 1026.02 1024.43 1022.79 1020.84 1020.13 1020.19 1020.61 1020.97 1021.48 1022.15 1022.76 1023.24 1023.62 1024.12 1024.57 1025.04 1025.42 1025.74 1025.86 1026.08 1026.38 1026.58
1027.33 1026.69 1025.96 1026.03 1026.51 1027.06 1027.89 1028.86 1029.43 1029.42 1028.84 1028.05 1026.38 1025.01 1023.90 1023.86 1023.08 1023.08 1022.68 1022.47 1022.31 1022.57 1023.19 1024.06 1025.26 1026.23 1026.19 1026.16 1026.58 1026.24 1025.97 1024.58 1023.02 1022.13 1020.61 1019.91 1019.56 1019.60 1019.93 1020.25 1020.67 1021.20 1021.88 1022.50 1023.09 1023.57 1023.99 1024.37 1024.66 1024.85 1025.05 1025.36 1025.58 1025.85
1027.16 1026.71 1026.79 1025.57 1026.13 1026.84 1027.59 1028.83 1029.53 1029.19 1028.79 1026.13 1023.67 1022.87 1022.84 1022.50 1022.22 1021.56 1021.60 1021.43 1021.37 1021.98 1022.90 1023.44 1024.38 1024.31 1024.73 1024.93 1024.82 1024.03 1023.09 1021.65 1020.80 1020.23 1019.63 1019.31 1019.06 1019.23 1019.56 1019.89 1020.34 1020.82 1021.38 1021.89 1022.34 1022.74 1023.03 1023.25 1023.64 1024.23 1024.57 1024.60 1024.79 1024.95
1027.40 1027.02 1026.68 1026.19 1025.60 1026.84 1027.73 1028.09 1028.55 1028.00 1026.43 1023.93 1023.10 1022.29 1021.93 1021.21 1020.93 1020.50 1020.11 1020.39 1020.65 1021.09 1021.77 1021.96 1022.43 1023.16 1022.83 1022.68 1022.15 1020.76 1020.54 1019.94 1019.78 1019.39 1019.00 1018.79 1018.64 1018.79 1019.04 1019.45 1019.82 1020.28 1020.85 1021.28 1021.56 1021.91 1022.35 1022.83 1023.15 1023.37 1023.53 1023.58 1023.84 1024.07
1027.31 1027.02 1026.66 1026.59 1025.98 1026.25 1026.87 1027.19 1026.85 1025.58 1023.59 1022.86 1021.88 1021.39 1021.00 1020.41 1019.80 1019.50 1019.46 1019.28 1019.36 1019.55 1020.30 1020.86 1021.21 1020.92 1020.33 1019.98 1019.46 1019.34 1019.13 1019.17 1019.13 1018.89 1018.60 1018.23 1018.29 1018.44 1018.72 1018.99 1019.20 1019.69 1020.16 1020.57 1021.03 1021.31 1021.58 1021.73 1021.88 1022.18 1022.45 1022.79 1023.29 1023.29
1026.53 1026.44 1026.25 1026.07 1026.54 1025.80 1025.43 1025.19 1025.01 1023.81 1021.70 1020.68 1020.54 1020.47 1020.32 1019.76 1019.23 1018.94 1019.00 1019.11 1019.14 1019.46 1019.30 1018.84 1018.53 1018.35 1018.18 1017.86 1017.74 1017.89 1017.86 1017.85 1018.18 1018.65 1018.64 1018.33 1018.05 1018.23 1018.43 1018.70 1019.02 1019.32 1019.72 1020.03 1020.26 1020.46 1020.93 1021.24 1021.25 1021.36 1021.59 1021.88 1022.32 1022.40
1026.10 1025.81 1025.39 1025.13 1024.81 1024.67 1023.51 1022.63 1022.40 1021.50 1020.47 1020.00 1019.01 1019.02 1018.90 1018.71 1018.51 1018.00 1018.10 1018.52 1018.60 1017.63 1017.03 1016.61 1016.73 1016.66 1016.46 1016.34 1016.33 1016.52 1016.69 1017.08 1017.34 1017.34 1017.46 1017.84 1017.64 1017.77 1017.95 1018.19 1018.47 1019.08 1019.48 1019.68 1019.92 1020.10 1020.27 1020.35 1020.28 1020.44 1020.78 1021.03 1021.06 1021.12
1025.57 1025.30 1025.31 1024.27 1023.35 1022.76 1021.83 1020.68 1019.91 1019.37 1019.45 1018.09 1017.74 1018.29 1018.06 1017.91 1017.06 1016.81 1016.99 1017.49 1016.07 1015.04 1015.11 1015.45 1015.26 1015.49 1015.58 1015.69 1015.60 1015.59 1015.64 1015.99 1016.19 1016.41 1016.65 1016.82 1017.32 1017.71 1017.88 1017.72 1018.19 1018.57 1018.80 1018.99 1019.15 1019.37 1019.45 1019.34 1019.48 1019.72 1020.01 1020.04 1020.11 1020.22
1024.70 1024.90 1024.79 1023.70 1022.32 1020.38 1019.16 1019.05 1018.87 1018.05 1017.75 1016.48 1016.72 1016.80 1016.53 1016.32 1015.93 1016.06 1015.49 1014.37 1013.56 1013.80 1013.84 1014.08 1013.95 1014.06 1014.26 1014.41 1014.62 1014.69 1014.72 1015.11 1015.50 1015.71 1015.89 1016.07 1016.15 1016.33 1016.70 1017.03 1017.25 1017.57 1017.90 1017.94 1018.03 1018.39 1018.68 1018.44 1018.74 1019.03 1019.13 1019.29 1019.47 1019.61
1024.03 1024.16 1023.31 1021.44 1019.96 1018.47 1017.62 1016.84 1016.57 1016.27 1016.15 1015.68 1015.30 1015.35 1015.04 1015.14 1014.88 1014.78 1013.07 1012.65 1012.39 1013.08 1013.17 1012.99 1013.08 1013.27 1013.47 1013.50 1013.78 1013.81 1013.64 1014.08 1014.48 1014.73 1014.85 1015.26 1015.64 1015.61 1015.70 1015.72 1015.93 1016.18 1016.37 1016.32 1016.82 1017.21 1017.46 1017.75 1017.83 1018.17 1018.38 1018.69 1018.82 1019.02
1023.48 1022.64 1021.83 1019.80 1017.91 1016.96 1015.98 1015.19 1014.80 1014.77 1014.38 1014.39 1014.42 1013.81 1013.58 1013.73 1013.50 1012.58 1011.02 1011.33 1011.93 1011.76 1012.19 1012.30 1011.97 1012.05 1012.11 1012.10 1012.40 1012.47 1012.60 1013.26 1013.71 1014.02 1013.72 1014.05 1014.32 1014.50 1014.76 1014.94 1015.01 1015.05 1015.19 1015.89 1016.37 1016.70 1016.83 1016.89 1017.16 1017.50 1017.73 1017.96 1018.13 1018.31
1021.26 1019.70 1018.82 1017.03 1015.73 1015.71 1013.94 1013.67 1013.43 1013.17 1012.95 1013.03 1012.70 1012.39 1012.50 1012.75 1012.24 1011.15 1010.37 1010.78 1011.01 1010.79 1011.04 1011.19 1011.03 1011.02 1010.76 1010.56 1010.79 1011.23 1011.44 1011.80 1012.47 1012.77 1012.82 1012.74 1013.37 1013.56 1013.72 1014.27 1014.43 1014.31 1014.42 1014.49 1014.89 1015.69 1016.03 1016.21 1016.63 1017.04 1017.24 1017.38 1017.56 1017.66
1020.10 1018.63 1016.53 1015.38 1014.45 1013.56 1013.21 1012.56 1011.96 1011.67 1011.61 1011.49 1011.28 1011.61 1011.63 1011.14 1010.59 1010.21 1009.67 1009.28 1009.73 1009.40 1009.36 1009.16 1009.21 1009.21 1009.02 1009.20 1009.50 1010.03 1010.44 1010.85 1011.05 1011.19 1011.53 1011.47 1011.73 1011.83 1012.03 1012.47 1012.73 1012.56 1012.90 1013.25 1013.79 1014.26 1014.81 1015.30 1015.79 1016.20 1016.42 1016.62 1016.79 1017.01
1018.03 1016.78 1015.96 1014.52 1013.84 1012.96 1012.55 1011.65 1010.81 1010.22 1009.93 1010.06 1010.25 1009.79 1009.59 1009.22 1009.17 1009.10 1008.54 1008.10 1007.52 1007.23 1007.54 1007.74 1007.84 1008.00 1008.38 1008.31 1008.62 1009.35 1009.65 1009.89 1010.19 1010.57 1010.72 1010.82 1010.84 1010.85 1010.88 1010.96 1011.15 1011.37 1011.70 1012.04 1012.51 1013.08 1013.63 1013.95 1014.59 1015.33 1015.74 1015.90 1016.01 1016.16
1016.07 1015.21 1015.14 1013.93 1013.02 1012.05 1011.24 1010.09 1009.16 1008.45 1008.34 1008.52 1008.19 1007.82 1007.78 1007.37 1007.30 1007.51 1007.19 1006.98 1006.69 1007.32 1007.62 1007.59 1007.64 1007.71 1007.79 1007.85 1008.15 1008.35 1008.57 1009.14 1010.01 1010.18 1010.22 1010.26 1010.60 1010.36 1010.19 1010.46 1010.69 1010.87 1011.10 1011.64 1012.06 1012.34 1012.87 1013.30 1013.63 1014.20 1014.81 1015.28 1015.30 1015.34
1014.06 1013.90 1013.90 1013.00 1012.30 1011.27 1010.12 1009.03 1007.60 1006.63 1006.73 1006.58 1006.46 1006.60 1006.40 1006.25 1005.91 1005.69 1006.33 1006.65 1006.90 1007.09 1006.91 1006.98 1007.28 1007.76 1007.80 1008.02 1008.15 1008.22 1008.02 1008.12 1008.25 1008.47 1008.80 1008.93 1008.71 1009.19 1009.75 1010.10 1010.49 1010.66 1010.95 1011.36 1012.03 1012.66 1013.23 1013.61 1013.78 1013.95 1014.13 1014.50 1014.92 1015.16
1012.83 1012.77 1012.48 1011.81 1010.71 1009.50 1008.85 1008.26 1008.03 1007.21 1006.55 1006.36 1005.99 1006.18 1005.84 1005.90 1005.63 1005.13 1005.28 1005.44 1005.74 1006.24 1006.79 1007.17 1007.29 1007.25 1007.43 1007.60 1007.75 1007.80 1007.63 1007.29 1007.42 1007.61 1007.72 1007.75 1008.12 1008.50 1008.95 1009.22 1009.60 1010.19 1010.77 1011.00 1011.40 1011.98 1012.66 1013.23 1013.49 1013.66 1013.86 1014.01 1014.32 1014.69
1012.06 1011.78 1011.47 1010.78 1009.23 1008.17 1008.36 1007.58 1006.64 1006.54 1005.75 1005.73 1005.72 1005.86 1005.53 1005.69 1005.26 1004.73 1004.34 1004.82 1005.45 1005.83 1005.85 1006.04 1006.23 1006.22 1006.20 1006.23 1006.42 1006.46 1006.21 1006.25 1006.50 1006.75 1007.11 1007.38 1007.74 1007.94 1008.23 1008.63 1009.16 1009.60 1010.10 1010.47 1011.00 1011.57 1012.07 1012.46 1012.90 1013.20 1013.42 1013.58 1013.70 1013.87
1010.85 1010.63 1010.49 1009.89 1008.32 1007.44 1006.80 1006.82 1005.88 1004.96 1004.88 1004.95 1004.90 1004.76 1004.63 1004.59 1004.20 1003.67 1003.15 1003.03 1003.49 1003.95 1004.23 1004.42 1004.59 1004.74 1004.84 1004.96 1005.00 1005.12 1005.46 1005.66 1005.80 1006.08 1006.33 1006.60 1006.93 1007.33 1007.78 1008.26 1008.76 1009.14 1009.59 1010.01 1010.46 1010.96 1011.56 1011.97 1012.34 1012.77 1012.95 1013.13 1013.26 1013.37
Thickness
5523 5524 5525 5527 5529 5533 5536 5539 5543 5546 5550 5554 5558 5563 5566 5568 5571 5572 5556 5559 5545 5514 5514 5521 5515 5503 5491 5474 5459 5461 5455 5450 5437 5430 5411 5399 5401 5397 5393 5375 5363 5372 5366 5354 5376 5351 5354 5389 5396 5375 5372 5382 5383 5383
5520 5521 5522 5523 5525 5528 5531 5534 5537 5540 5544 5548 5553 5557 5560 5561 5563 5565 5554 5553 5549 5528 5520 5522 5521 5518 5510 5498 5476 5467 5459 5451 5436 5418 5408 5401 5402 5389 5407 5379 5409 5381 5375 5369 5364 5351 5369 5381 5375 5387 5388 5387 5388 5391
5517 5518 5519 5519 5521 5524 5526 5529 5532 5534 5538 5542 5546 5550 5553 5555 5556 5557 5551 5547 5540 5522 5516 5513 5518 5520 5518 5510 5502 5479 5469 5469 5460 5445 5416 5405 5418 5401 5392 5391 5420 5415 5412 5387 5385 5385 5388 5398 5396 5392 5396 5393 5395 5399
5513 5514 5515 5516 5517 5519 5522 5523 5526 5529 5532 5536 5540 5543 5545 5547 5549 5551 5545 5542 5538 5521 5495 5508 5523 5523 5521 5517 5511 5501 5493 5483 5472 5457 5437 5415 5416 5424 5404 5415 5408 5410 5415 5407 5399 5405 5406 5405 5403 5407 5404 5403 5403 5400
5509 5510 5512 5513 5513 5514 5517 5519 5520 5523 5525 5528 5532 5535 5537 5540 5542 5543 5541 5538 5538 5525 5502 5506 5517 5525 5523 5519 5514 5508 5499 5488 5473 5456 5438 5441 5435 5435 5426 5422 5407 5426 5420 5396 5385 5411 5406 5408 5414 5417 5413 5413 5407 5404
5504 5505 5506 5508 5509 5509 5511 5514 5515 5517 5519 5521 5524 5527 5530 5533 5536 5534 5520 5534 5534 5533 5512 5497 5514 5524 5524 5522 5519 5515 5502 5491 5478 5466 5460 5458 5464 5449 5432 5431 5445 5448 5444 5434 5429 5430 5426 5429 5425 5426 5425 5421 5416 5411
5498 5499 5500 5501 5503 5505 5506 5508 5509 5510 5513 5515 5517 5520 5523 5527 5529 5520 5516 5527 5531 5531 5513 5501 5506 5518 5526 5521 5511 5509 5503 5495 5486 5472 5468 5466 5469 5456 5437 5443 5462 5461 5459 5453 5452 5449 5446 5441 5435 5433 5434 5430 5426 5421
5490 5491 5493 5494 5496 5499 5501 5502 5502 5505 5507 5509 5510 5512 5515 5517 5519 5518 5522 5525 5528 5520 5517 5497 5508 5508 5522 5510 5505 5504 5501 5493 5491 5486 5477 5478 5473 5465 5456 5480 5476 5472 5468 5464 5462 5460 5455 5452 5445 5441 5440 5437 5432 5426
5482 5484 5484 5485 5487 5491 5494 5496 5497 5498 5501 5502 5505 5508 5509 5507 5501 5510 5516 5519 5520 5513 5498 5508 5503 5488 5517 5512 5505 5505 5497 5485 5490 5487 5487 5484 5475 5478 5500 5494 5492 5485 5477 5473 5471 5466 5461 5454 5450 5445 5444 5442 5436 5431
5473 5475 5475 5476 5478 5481 5484 5487 5490 5491 5492 5495 5497 5488 5477 5496 5504 5506 5502 5491 5490 5493 5505 5504 5507 5509 5511 5504 5502 5499 5490 5480 5481 5491 5491 5474 5489 5516 5517 5515 5508 5499 5492 5485 5475 5471 5465 5460 5456 5452 5451 5447 5443 5439
5465 5465 5466 5467 5468 5470 5474 5477 5480 5482 5483 5480 5469 5473 5493 5496 5493 5482 5472 5474 5476 5496 5497 5508 5511 5508 5511 5499 5499 5493 5486 5490 5490 5498 5492 5479 5498 5521 5528 5523 5516 5510 5502 5495 5490 5483 5477 5471 5464 5458 5455 5453 5449 5444
5456 5457 5457 5457 5457 5459 5461 5464 5468 5469 5468 5470 5473 5481 5485 5476 5468 5472 5466 5480 5490 5504 5506 5507 5511 5512 5511 5506 5500 5491 5498 5495 5504 5497 5482 5495 5515 5539 5534 5530 5521 5516 5507 5501 5496 5489 5484 5480 5473 5466 5462 5457 5454 5453
5442 5445 5448 5449 5447 5446 5446 5450 5454 5456 5461 5463 5460 5470 5462 5454 5452 5467 5470 5492 5487 5505 5510 5510 5507 5505 5503 5498 5491 5490 5500 5491 5494 5474 5501 5511 5531 5541 5536 5532 5523 5518 5510 5504 5498 5493 5488 5483 5478 5472 5468 5463 5458 5455
5423 5431 5435 5436 5439 5437 5434 5432 5436 5438 5442 5439 5447 5437 5457 5456 5471 5496 5500 5505 5512 5515 5510 5507 5496 5496 5487 5491 5482 5496 5491 5488 5483 5485 5509 5513 5537 5540 5535 5533 5525 5517 5513 5507 5500 5494 5488 5482 5477 5474 5471 5467 5459 5456
5406 5412 5419 5424 5426 5424 5421 5417 5417 5418 5425 5429 5435 5439 5469 5489 5494 5501 5505 5511 5513 5512 5511 5499 5490 5486 5482 5485 5478 5485 5486 5484 5495 5508 5513 5532 5542 5537 5532 5529 5524 5517 5509 5504 5500 5494 5489 5483 5478 5474 5471 5467 5463 5460
5392 5399 5405 5407 5409 5408 5403 5398 5397 5399 5408 5420 5442 5457 5474 5479 5489 5492 5499 5504 5502 5498 5497 5493 5485 5476 5485 5481 5482 5482 5487 5501 5513 5506 5520 5534 5538 5536 5534 5530 5525 5520 5512 5505 5498 5493 5489 5484 5480 5477 5474 5469 5464 5459
5376 5383 5381 5390 5387 5384 5381 5377 5373 5381 5384 5420 5443 5458 5465 5477 5485 5490 5494 5500 5500 5503 5487 5479 5483 5490 5478 5480 5489 5491 5502 5510 5513 5519 5527 5533 5535 5530 5526 5523 5518 5514 5509 5502 5497 5493 5490 5487 5482 5476 5471 5470 5466 5463
5359 5361 5364 5367 5368 5358 5353 5357 5356 5365 5389 5424 5434 5444 5455 5469 5480 5486 5492 5491 5493 5494 5485 5490 5486 5485 5488 5501 5503 5506 5506 5515 5520 5526 5530 5532 5532 5527 5524 5519 5515 5510 5504 5499 5496 5493 5487 5481 5477 5474 5472 5470 5467 5463
5338 5339 5341 5339 5345 5341 5336 5335 5342 5364 5399 5409 5425 5436 5446 5459 5473 5478 5481 5485 5488 5491 5486 5482 5486 5488 5502 5504 5510 5509 5512 5515 5518 5522 5526 5529 5526 5524 5520 5517 5515 5508 5502 5497 5492 5490 5487 5484 5482 5477 5473 5468 5463 5458
5315 5317 5316 5315 5312 5317 5320 5321 5333 5354 5392 5410 5416 5422 5433 5442 5458 5462 5468 5470 5472 5473 5475 5480 5489 5502 5506 5511 5512 5513 5516 5519 5517 5515 5514 5516 5518 5519 5516 5511 5508 5506 5500 5495 5493 5487 5484 5480 5477 5474 5470 5466 5462 5459
5287 5286 5290 5290 5295 5294 5306 5315 5329 5352 5377 5388 5410 5413 5413 5426 5437 5449 5452 5458 5450 5477 5482 5485 5509 5513 5513 5513 5511 5513 5516 5515 5514 5517 5516 5509 5512 5512 5512 5509 5506 5500 5493 5490 5488 5484 5477 5479 5480 5476 5470 5465 5463 5462
5256 5252 5254 5260 5270 5276 5283 5303 5330 5345 5350 5379 5392 5392 5394 5409 5425 5436 5439 5433 5465 5487 5484 5486 5499 5503 5506 5508 5511 5507 5510 5511 5514 5514 5511 5508 5506 5502 5501 5502 5497 5494 5490 5488 5485 5484 5483 5482 5477 5474 5469 5467 5463 5462
5227 5222 5221 5233 5245 5262 5281 5296 5309 5329 5340 5363 5375 5380 5389 5393 5410 5415 5422 5453 5473 5471 5477 5480 5494 5499 5500 5503 5501 5501 5503 5504 5505 5507 5507 5505 5506 5506 5502 5497 5495 5492 5487 5486 5484 5482 5478 5477 5473 5469 5467 5464 5461 5458
5205 5202 5205 5227 5243 5261 5270 5284 5301 5322 5327 5340 5358 5365 5377 5382 5392 5402 5432 5453 5469 5458 5465 5471 5480 5484 5482 5488 5490 5495 5502 5497 5500 5500 5499 5499 5497 5498 5500 5501 5499 5498 5495 5495 5489 5485 5481 5477 5473 5470 5467 5462 5458 5456
5191 5198 5202 5213 5247 5259 5270 5284 5292 5305 5315 5329 5338 5350 5367 5373 5378 5398 5439 5442 5446 5455 5453 5458 5469 5476 5480 5484 5487 5491 5494 5487 5486 5487 5494 5493 5497 5496 5493 5492 5492 5494 5492 5485 5480 5477 5476 5471 5468 5466 5463 5459 5458 5452
5195 5203 5212 5229 5248 5262 5280 5280 5285 5296 5319 5321 5329 5343 5353 5355 5367 5387 5422 5424 5423 5440 5442 5446 5455 5462 5470 5481 5485 5483 5487 5487 5481 5480 5487 5494 5490 5488 5491 5483 5486 5489 5485 5484 5482 5476 5473 5469 5463 5460 5457 5455 5451 5448
5171 5191 5226 5244 5254 5273 5273 5280 5294 5304 5302 5309 5326 5331 5337 5342 5351 5378 5391 5412 5422 5433 5437 5445 5450 5457 5469 5474 5476 5475 5476 5475 5478 5480 5481 5485 5485 5488 5490 5485 5486 5488 5480 5480 5478 5474 5471 5466 5459 5454 5452 5449 5446 5441
5194 5211 5213 5243 5254 5265 5267 5277 5288 5299 5314 5313 5312 5321 5324 5334 5354 5376 5387 5400 5415 5425 5427 5431 5438 5447 5453 5461 5462 5458 5461 5464 5465 5466 5469 5472 5476 5479 5481 5482 5481 5477 5477 5477 5474 5469 5465 5462 5456 5448 5444 5442 5440 5437
5194 5219 5218 5224 5240 5259 5268 5275 5295 5311 5314 5314 5321 5328 5333 5359 5375 5371 5378 5385 5394 5399 5403 5412 5420 5422 5429 5436 5440 5448 5453 5452 5451 5455 5458 5465 5462 5467 5468 5466 5464 5466 5467 5465 5461 5461 5457 5454 5450 5445 5438 5432 5430 5428
5211 5216 5207 5215 5223 5237 5261 5275 5298 5317 5320 5329 5334 5329 5337 5346 5361 5367 5365 5367 5374 5382 5390 5397 5401 5406 5416 5421 5426 5430 5436 5442 5449 5456 5456 5457 5462 5454 5454 5455 5452 5450 5450 5449 5445 5440 5436 5433 5432 5431 5429 5425 5419 5415
5210 5207 5204 5215 5225 5246 5263 5275 5275 5291 5299 5298 5312 5319 5333 5337 5339 5349 5360 5364 5365 5366 5372 5378 5384 5392 5400 5406 5411 5417 5425 5430 5435 5440 5445 5444 5444 5443 5443 5443 5441 5439 5435 5435 5433 5430 5426 5420 5418 5416 5414 5412 5408 5403
5199 5200 5200 5203 5227 5252 5255 5265 5279 5281 5298 5303 5309 5300 5309 5312 5333 5343 5354 5354 5353 5358 5365 5369 5377 5386 5391 5397 5401 5406 5414 5418 5423 5427 5429 5430 5430 5431 5431 5430 5428 5426 5423 5422 5420 5416 5411 5407 5403 5400 5397 5397 5395 5392
5204 5202 5203 5208 5226 5238 5255 5262 5274 5288 5291 5298 5306 5315 5319 5323 5330 5346 5348 5359 5364 5364 5367 5369 5372 5376 5381 5387 5395 5400 5402 5406 5409 5412 5415 5417 5418 5418 5417 5415 5412 5411 5409 5406 5403 5400 5396 5393 5390 5386 5384 5382 5380 5378